Regional Weather Roundup
Issued by NWS Charleston, SC

Current Version | Previous Version | Graphics & Text | Print | Product List | Glossary On
Versions: 1 2 3 4 5 6 7 8 9 10 11 12 13 14 15 16 17 18 19 20 21 22 23 24 25 26 27 28 29 30 31 32 33 34 35 36 37 38 39 40 41 42 43 44 45 46 47 48 49 50
685
ASUS42 KCHS 310613
RWRCHS

REGIONAL WEATHER ROUNDUP
NATIONAL WEATHER SERVICE CHARLESTON SC
200 AM EDT TUE MAY 31 2016

NOTE: "FAIR" INDICATES FEW OR NO CLOUDS BELOW 12,000 FEET WITH NO
SIGNIFICANT WEATHER AND/OR OBSTRUCTIONS TO VISIBILITY.

NOT ALL STATIONS ARE QUALITY CONTROLLED. USE DATA WITH CAUTION...
ESPECIALLY DEWPOINT OBSERVATIONS.

SCZ027-030-031-034>040-042>050-310700-
...SOUTHEAST SOUTH CAROLINA...

CITY           SKY/WX    TMP DP  RH WIND       PRES   REMARKS
N CHARLESTON   CLOUDY    72  70  93 W5        29.88F
6HR MIN TEMP:  72; 6HR MAX TEMP:  73; 6HR PCP:  0.02;

WATERFRONT PRK   N/A     72  71  97 VRB2      29.87S
MOUNT PLEASANT CLOUDY    72  72 100 CALM      29.88S
JOHNS ISLAND   CLOUDY    72  72 100 CALM      29.89S
PINOPOLIS        N/A     73  72  94 VRB2      29.82F
MONCKS CORNER  CLOUDY    66  64  94 CALM      29.89S FOG
SUMMERVILLE    FOG       70  70 100 W3        29.90F VSB 1/2
BEAUFORT MCAS  CLOUDY    73  71  93 CALM      29.90S
6HR MIN TEMP:  73; 6HR MAX TEMP:  75; 6HR PCP:  0.06;

BEAUFORT ARPT  MOCLDY    72  72 100 CALM      29.90S
HILTON HEAD IS PTCLDY    72  72 100 CALM      29.90S
WALTERBORO     PTCLDY    72  72 100 CALM      29.90F FOG
ALLENDALE      CLOUDY    72  72 100 CALM      29.90S FOG

...SOUTHERN MIDLANDS AND PEE DEE...

CITY           SKY/WX    TMP DP  RH WIND       PRES   REMARKS
GEORGETOWN     MOCLDY    70  70 100 N3        29.88F
KINGSTREE      FOG       70  68  94 CALM      29.89S VSB 1/2
ORANGEBURG     CLEAR     69  68  96 CALM      29.91R FOG
6HR MIN TEMP:  69; 6HR MAX TEMP:  76;

BARNWELL       MOCLDY    72  72 100 CALM      29.92S
AIKEN          FAIR      68  64  88 CALM      29.96R
MANNING        CLOUDY    70  68  94 CALM      29.90S FOG
COLUMBIA       PTCLDY    74  69  85 N6        29.91S
6HR MIN TEMP:  73; 6HR MAX TEMP:  80;

SUMTER         NOT AVBL
FLORENCE       CLOUDY    73  70  90 NE6       29.90S
6HR MIN TEMP:  73; 6HR MAX TEMP:  75;

MYRTLE BEACH   PTCLDY    73  64  73 E6        29.89F
N MYRTLE BEACH MOCLDY    75  70  84 CALM      29.87F
6HR MIN TEMP:  73; 6HR MAX TEMP:  77;


$$

GAZ063-065-086>088-099>101-113>116-118-119-134>141-150-310700-
...SOUTHEAST GEORGIA...

CITY           SKY/WX    TMP DP  RH WIND       PRES   REMARKS
SAVANNAH ARPT  CLEAR     71  68  90 NE3       29.90F
6HR MIN TEMP:  71; 6HR MAX TEMP:  85;

HUNTER AAF     NOT AVBL
FORT STEWART   NOT AVBL
STATESBORO     CLEAR     69  69  99 CALM      29.91S
SYLVANIA       CLEAR     71  69  92 CALM      29.91F
CLAXTON        FAIR      69  69 100 CALM      29.90S

...CSRA...CENTRAL AND FAR SOUTHEAST GEORGIA...

CITY           SKY/WX    TMP DP  RH WIND       PRES   REMARKS
THOMSON        PTCLDY    70  69  98 CALM      29.97R
AUGUSTA-BUSH   CLEAR     68  67  96 CALM      29.91S
6HR MIN TEMP:  67; 6HR MAX TEMP:  84;

AUGUSTA-DANIEL CLEAR     74  67  78 CALM      29.93S
SWAINSBORO     FAIR      70  66  88 CALM      29.91F
VIDALIA        CLOUDY    72  66  83 CALM      29.91S
EASTMAN        FAIR      69  69 100 CALM      29.92F
HAZLEHURST     MOCLDY    77  66  68 CALM      29.89F
ALMA           PTCLDY    72  66  81 CALM      29.91S
6HR MIN TEMP:  69; 6HR MAX TEMP:  88;

WAYCROSS       CLEAR     71  68  88 SW3       29.92S
JESUP          FAIR      64  63  94 SW5       29.91R
BAXLEY         MOCLDY    73  68  83 CALM      29.90F
BRUNSWICK      CLEAR     79  70  73 SW10      29.91S
SAINT SIMONS   CLEAR     75  68  78 SW8       29.90S
6HR MIN TEMP:  75; 6HR MAX TEMP:  81;


$$

SCZ027-028-034-036>038-045-046-048>050-GAZ119-141-310700-
...LAKE AND SUPPLEMENTAL COASTAL OBSERVATIONS...

STATION/POSITION TIME  TEMP    WIND        PRES    WAVE   SWELL
                       AIR SEA DIR/SP/G            HT/PER HT/PER/DIR
                 (UTC) (F)     (DEG/KT/KT) (MB)    (FT/S) (FT/S/D)
WINYAH BAY       NOT AVBL
LAKE MURRAY      0500   73      CALM  /  3 1012.9F
ACE BASIN NERRS  NOT AVBL
FORT PULASKI     0500   75 76   60/  4/  4 1012.8F
SAPELO ISLAND    0500   76     200/  3     1012.0F

$$

ANZ835-935-AMZ111-154-330-350-352-354-370-450-454-472-310700-
...C-MAN AND BUOY OBSERVATIONS...

STATION/POSITION TIME  TEMP    WIND        PRES    WAVE   SWELL
                       AIR SEA DIR/SP/G            HT/PER HT/PER/DIR
                 (UTC) (F)     (DEG/KT/KT) (MB)    (FT/S) (FT/S/D)
BUOY 41004       0550   75 77  250/ 17/ 21 1010.4F   4/ 8   3/ 8
BUOY 41008       0550   78 77  180/ 10/ 12 1011.6F   3/ 8   2/ 90/ 8
FOLLY BEACH CMAN 0600   71     260/  5/  7 1012.0F
CAPERS NEARSHORE 0508   73 76  350/ 12/ 16 1012.2R
FRIPP NEARSHORE  0508   73 76  120/  4/  6 1011.9F


STATION/POSITION TIME  TEMP    WIND        PRES    WAVE   SWELL
                       AIR SEA DIR/SP/G            HT/PER HT/PER/DIR
                 (UTC) (F)     (DEG/KT/KT) (MB)    (FT/S) (FT/S/D)
5E ST. MARYS GA  0501      79                N/A     3/ 7
FRYING PAN BUOY  0500   77 78  160/  2/  4 1012.0F
BUOY 41025       0550   78 80  210/ 14/ 17 1012.7F   6/ 8   5/160/ 8
CAPE LOOKOUT NC  0600   75     140/  8/  9 1012.0F
BUOY 41002       0550   75 76  160/ 12/ 14 1014.6F   4/ 8   3/ 90/ 8
BUOY 41010       0520   80 80  200/ 12/ 14 1014.2F
ST AUGUSTINE FL  0600   72 80  240/  8/ 11 1014.2F


$$




USA.gov is the U.S. government's official web portal to all federal, state and local government web resources and services.